Wind_Gust
15 23 24 22 17 14 14 17 18 16 18 17 16 15 17 15 15 15 17 17 17 18 17 18 17 18 17 16 17 17 17 17 15 15 14 15 15 14 14 13 13 12 12 14 15 13 13 13 13 13 13 14 15 15 14 13 14 15 16 16 16 17 16 16 16 16 17 17 17 17 16 17 17 19 19 18 18 18 17 17 16 20 18 20 17
17 20 20 23 23 21 14 17 15 17 19 18 17 16 16 16 16 17 17 17 17 17 18 18 17 19 19 18 18 17 17 16 17 17 16 15 15 15 14 13 12 12 13 14 13 13 14 13 13 14 13 14 15 16 15 15 16 16 17 16 16 16 17 16 16 16 17 16 17 17 16 16 17 17 16 16 17 16 16 17 15 14 21 16 16
17 18 18 20 23 27 19 15 15 17 16 18 26 21 21 18 16 17 17 18 17 18 17 18 18 18 18 19 19 18 17 16 17 21 16 15 14 14 14 15 14 14 17 16 15 15 14 13 13 14 15 16 17 17 17 17 17 18 18 17 17 18 18 16 16 16 16 16 16 17 19 18 17 16 17 17 17 17 16 15 14 12 21 15 15
19 18 19 19 20 22 22 16 15 16 16 16 22 21 17 16 18 16 16 17 17 17 18 17 20 17 18 17 17 17 16 15 16 16 15 15 14 15 15 14 14 14 15 14 13 14 17 16 16 15 16 18 19 20 19 18 17 18 18 17 17 17 16 16 16 15 15 15 16 14 15 20 19 15 15 16 16 15 14 14 17 16 15 14 15
17 18 17 19 19 18 18 15 16 17 16 17 17 16 19 19 16 16 16 16 16 16 17 17 16 17 16 16 16 16 15 15 15 15 15 14 14 15 15 15 14 13 14 15 14 15 15 16 17 17 19 20 20 21 19 18 17 17 17 16 16 15 15 15 14 15 15 16 14 12 15 19 18 15 14 15 15 14 13 14 14 14 14 15 15
17 16 20 22 18 17 17 18 15 16 16 17 19 18 17 17 22 23 21 15 15 15 15 16 16 16 16 16 15 15 14 15 15 15 15 14 14 15 16 16 15 15 15 15 16 18 18 17 18 20 20 20 21 20 19 18 18 18 17 16 16 15 14 13 13 13 13 13 14 14 13 18 19 19 14 15 16 14 14 13 13 14 15 15 16
15 17 19 20 18 17 15 15 17 16 18 18 17 17 17 16 20 20 19 16 14 14 14 15 16 16 16 16 16 16 15 14 14 15 16 16 15 16 16 16 16 16 15 14 17 18 19 18 19 20 21 20 20 20 19 18 17 17 17 17 15 15 13 12 11 11 12 14 14 13 17 17 17 20 15 16 15 15 13 13 14 15 16 16 16
15 16 18 19 14 17 15 15 16 17 20 18 17 17 16 15 15 17 19 15 15 14 14 15 16 17 16 15 15 15 16 17 16 16 15 15 15 15 15 16 16 15 15 14 15 16 17 20 19 18 19 20 19 18 17 15 14 14 14 13 13 13 12 10 10 10 14 15 13 14 14 17 17 19 14 15 15 15 14 14 14 14 14 15 15
15 16 18 16 15 16 17 15 15 16 17 14 15 16 15 15 14 14 17 14 14 15 14 14 15 17 16 15 15 18 18 18 18 14 14 15 15 16 15 15 16 16 16 16 16 16 16 17 17 18 19 19 18 17 15 13 12 11 11 11 10 9 8 9 8 11 10 15 14 14 16 18 17 19 15 14 14 15 14 13 16 15 14 14 15
14 18 15 15 15 14 15 16 15 15 14 13 14 15 14 15 16 13 13 13 13 14 13 13 15 16 16 16 16 21 19 20 15 15 14 14 16 16 16 16 15 17 17 16 17 16 16 15 16 18 18 18 17 15 13 11 11 10 9 8 7 5 6 6 8 9 14 13 16 14 15 16 18 19 18 14 15 15 14 16 15 12 11 13 18
17 17 13 14 15 12 11 13 15 15 13 12 13 15 16 16 17 16 16 13 13 15 13 13 15 16 15 16 17 18 18 19 17 15 15 14 17 17 18 17 16 15 16 16 16 17 16 16 17 17 17 17 16 13 12 11 10 10 10 9 7 6 5 7 12 13 14 14 16 16 16 8 16 17 13 13 14 13 12 11 12 12 12 12 13
16 16 13 14 16 13 14 16 15 15 15 14 15 17 16 19 16 13 13 14 14 16 15 13 15 16 16 17 19 17 16 19 17 15 16 16 18 18 18 17 15 15 15 16 17 17 16 15 15 15 15 14 13 12 11 10 11 10 10 8 8 5 6 9 13 15 12 16 16 13 13 14 15 21 12 13 12 11 11 12 13 15 13 13 14
17 16 13 13 12 12 15 15 15 14 12 12 14 16 17 16 15 12 13 16 19 23 25 21 17 16 18 17 16 17 18 18 17 16 16 16 17 18 18 18 17 16 16 16 16 16 15 14 15 13 14 13 12 11 11 11 10 10 10 9 8 6 7 12 12 13 15 14 13 12 14 11 17 13 11 11 11 9 13 13 14 15 13 12 14
16 14 12 14 15 13 14 14 14 13 12 15 16 14 16 14 15 14 16 18 20 23 18 15 15 18 17 16 17 16 16 17 16 16 16 17 18 18 18 18 17 16 16 16 15 15 14 14 14 14 13 12 11 11 11 11 11 10 11 10 9 7 8 10 10 13 13 13 12 14 13 11 17 12 10 10 9 9 14 15 12 11 12 15 13
17 16 16 14 18 16 17 16 15 15 17 19 18 17 18 15 14 15 20 22 20 18 14 16 17 15 15 14 14 14 16 16 14 15 16 17 17 18 17 17 16 16 16 16 16 16 15 14 14 14 13 12 12 11 10 10 9 10 10 10 9 7 7 15 11 13 14 12 13 11 13 17 13 9 9 10 10 8 9 10 10 10 12 11 16
14 14 14 14 15 17 14 14 15 17 13 18 16 15 17 14 18 21 23 22 19 15 14 17 19 15 15 16 15 14 16 18 15 15 15 16 16 16 16 16 16 16 15 16 16 15 15 15 14 14 13 12 12 11 10 10 10 10 11 10 10 7 8 12 10 11 11 12 13 11 11 19 13 8 7 9 7 9 9 9 9 10 13 12 12
14 14 14 14 14 13 15 16 15 16 14 21 21 17 13 16 22 24 24 23 23 19 16 15 18 17 17 14 14 13 14 15 15 14 14 15 15 15 14 14 15 15 15 15 15 15 15 14 14 13 13 12 11 11 11 11 10 9 9 10 10 6 7 10 11 10 11 13 12 11 10 21 15 9 8 9 8 9 8 7 8 10 10 12 11
15 15 15 14 14 15 16 14 14 15 19 18 19 20 17 19 22 24 18 19 21 21 19 18 18 17 16 13 13 13 12 13 13 13 13 13 13 13 13 13 13 13 14 14 14 14 13 13 13 12 12 12 12 11 11 11 9 8 7 8 9 6 5 10 10 10 13 9 13 11 12 15 14 8 8 8 8 8 5 9 8 11 9 8 11
14 14 14 13 13 14 15 15 15 15 19 18 17 20 19 17 19 19 18 23 23 23 21 18 20 19 16 15 17 14 12 12 12 12 12 12 12 12 12 11 12 12 12 12 12 12 12 12 11 11 11 11 11 11 11 10 9 7 6 5 7 7 6 11 12 12 12 11 10 10 17 14 10 8 8 9 8 8 6 10 10 8 8 8 10
13 13 13 12 13 14 14 17 17 17 16 18 17 16 16 19 21 21 18 18 19 21 18 16 18 16 13 14 15 12 12 13 11 13 11 11 10 11 10 11 11 11 12 12 12 11 12 12 11 11 11 11 11 11 10 9 8 8 6 5 6 8 14 9 12 13 11 13 10 12 15 11 10 9 9 9 9 7 9 9 10 8 9 11 10
11 11 11 12 12 13 14 16 16 17 15 16 18 18 22 21 17 18 19 15 16 17 16 17 16 13 12 13 11 11 10 11 11 12 10 13 10 10 10 10 10 10 11 11 10 10 10 11 11 10 10 10 9 10 9 9 8 8 8 8 8 15 9 9 10 10 10 12 11 17 14 11 11 10 9 9 9 7 9 9 10 8 9 8 10
12 13 14 13 12 13 13 13 14 16 16 16 16 17 20 20 15 14 15 13 16 13 13 14 13 11 13 12 11 10 9 10 10 8 10 13 13 9 9 9 9 9 9 10 10 9 10 10 10 10 10 10 13 18 14 9 9 9 9 8 16 8 8 8 8 9 10 11 11 16 12 11 11 11 10 10 10 9 10 9 9 9 10 8 9
14 13 14 13 12 14 13 14 14 14 15 16 16 17 17 13 14 12 14 12 13 13 11 11 11 10 10 11 11 9 9 9 9 10 10 8 12 9 9 9 9 8 8 8 8 9 9 9 10 9 9 12 20 15 14 17 16 11 11 16 10 9 9 8 8 8 9 12 11 13 12 12 12 11 10 10 9 9 12 10 10 10 11 11 9
13 14 13 12 13 13 14 13 13 14 14 15 15 14 14 13 15 14 14 10 10 10 10 10 10 9 9 9 9 9 8 8 8 9 8 12 13 8 8 8 8 9 10 11 10 9 9 10 9 9 11 14 14 12 12 11 14 15 14 11 9 10 10 9 8 8 8 12 14 12 12 12 12 12 11 11 11 11 10 9 10 10 11 13 11
12 11 13 13 12 12 12 13 12 12 13 13 13 14 14 14 14 12 12 12 10 10 10 11 11 10 10 9 11 9 9 8 8 8 8 9 9 11 14 14 12 12 11 13 14 18 16 16 17 17 16 12 11 8 8 9 9 10 8 8 9 9 9 9 8 7 8 14 15 11 12 12 13 13 13 11 11 11 11 10 10 11 11 11 14
11 13 13 12 12 12 11 15 14 13 12 15 15 12 16 14 13 12 13 13 11 11 10 11 11 9 9 11 10 10 8 10 9 8 8 7 7 9 13 9 8 9 10 9 8 8 14 15 12 13 10 10 8 9 9 8 9 10 8 7 9 9 9 7 8 9 15 14 14 11 13 13 13 14 14 12 12 12 12 12 11 11 12 11 13
13 12 11 12 11 10 9 10 15 14 14 15 15 14 13 14 14 13 13 13 15 14 12 13 14 13 12 11 9 10 10 9 10 9 9 8 9 8 8 8 7 8 8 7 7 7 8 7 8 8 8 9 10 8 9 10 10 11 8 10 9 8 8 9 9 11 15 16 14 13 13 13 13 14 14 14 13 13 13 14 13 12 11 12 12
13 11 12 11 11 11 10 10 12 17 16 16 17 18 16 16 15 13 13 13 16 16 12 12 13 13 10 10 10 9 11 11 10 10 10 10 10 9 8 8 7 8 8 7 8 7 8 7 7 8 10 8 9 9 7 8 9 9 9 9 9 8 8 9 9 12 15 17 17 14 13 13 14 12 14 14 14 13 12 13 13 13 13 13 12
13 11 11 11 10 10 10 11 11 11 13 17 19 18 14 15 16 14 14 12 11 11 10 10 10 10 11 10 10 9 9 9 10 10 9 10 9 10 9 9 8 8 7 8 7 7 8 8 7 9 7 8 8 9 9 10 9 9 9 9 9 8 8 9 9 11 14 15 14 16 14 13 12 14 14 15 14 14 13 13 14 14 13 13 13
12 11 10 10 11 10 11 12 11 9 8 8 10 17 19 18 15 16 16 15 12 10 9 11 12 12 12 10 9 9 8 9 9 9 10 10 10 9 9 9 10 8 7 7 8 8 6 7 9 9 9 8 8 9 9 9 11 9 9 9 9 10 9 11 10 14 15 15 14 16 16 14 15 16 15 15 15 14 14 14 15 14 14 15 14
10 10 9 11 11 10 12 11 10 8 8 9 10 11 14 17 19 17 15 15 14 12 12 13 13 12 11 9 10 10 9 10 11 10 10 10 10 10 11 10 9 10 8 7 7 7 7 7 7 8 8 9 9 9 9 8 7 8 9 9 8 8 9 9 10 10 13 12 13 12 17 17 16 16 15 15 15 15 14 14 14 15 15 15 15
11 9 10 11 12 12 13 13 13 14 12 11 10 11 11 10 11 12 12 12 10 11 12 13 12 12 10 10 10 10 10 11 12 11 11 11 11 11 11 11 11 10 9 8 7 7 8 8 8 7 7 9 8 8 8 9 9 9 10 10 8 8 8 8 12 10 10 12 12 12 14 18 17 17 17 16 14 15 15 15 14 14 15 15 15
12 10 11 11 13 13 14 14 15 13 13 12 12 11 11 11 12 13 12 10 10 9 10 10 10 9 10 10 10 11 10 11 11 11 11 12 11 11 11 11 12 12 10 10 10 8 7 7 8 8 8 8 8 8 11 8 9 10 11 10 8 9 9 8 8 10 10 11 12 12 12 14 16 16 18 17 17 16 16 16 15 15 14 15 15
10 13 11 12 13 12 13 14 15 15 14 13 14 17 16 15 13 10 10 11 10 11 10 8 9 10 11 11 11 12 11 11 11 11 12 13 12 12 12 12 13 12 10 10 9 8 9 7 8 8 7 9 8 8 8 9 10 9 9 12 10 10 9 11 8 8 8 10 11 10 11 11 12 14 17 16 17 16 18 18 17 16 15 15 15
10 11 12 14 13 14 12 14 15 15 15 16 18 16 15 17 16 13 13 13 12 12 10 9 10 11 12 13 12 12 13 12 12 11 11 12 13 13 12 13 13 11 11 11 9 8 8 8 9 12 7 8 10 9 10 10 11 12 11 10 11 12 10 10 9 10 9 9 10 9 9 10 10 11 22 19 11 15 16 16 15 15 15 16 16
11 13 14 14 14 13 13 15 15 15 15 15 15 16 15 15 16 12 14 12 13 14 13 13 12 12 13 15 13 13 13 12 11 11 11 12 12 13 13 13 12 11 11 11 10 10 9 9 8 10 11 11 11 9 9 10 9 11 11 11 11 11 11 10 10 10 11 9 10 10 9 16 14 15 13 16 14 18 17 14 14 14 14 14 15
12 15 15 15 16 15 14 15 15 15 15 15 15 15 15 15 14 14 13 13 15 16 15 14 16 15 14 15 14 13 13 13 12 12 12 12 13 13 13 13 11 11 11 10 10 11 10 10 9 10 11 13 14 13 9 9 8 10 12 12 13 12 12 11 11 11 10 11 11 13 15 15 14 9 13 14 14 15 16 15 14 15 15 15 15
12 13 13 15 15 15 14 14 14 14 15 15 15 15 15 15 15 15 13 15 14 14 15 15 15 15 14 15 14 15 14 14 14 13 13 13 13 13 13 13 12 12 11 10 10 9 9 10 9 9 11 12 11 12 11 10 10 10 12 13 13 14 16 15 13 11 12 13 13 13 14 15 16 16 15 14 13 13 13 14 15 16 17 15 15
13 13 13 13 13 14 14 14 14 14 14 14 15 15 15 14 15 14 14 14 14 14 13 15 15 15 15 15 15 14 15 15 15 14 14 14 14 14 14 13 12 12 12 12 12 11 11 10 11 8 8 10 10 10 11 10 10 11 13 14 13 16 16 17 16 15 15 14 15 14 15 16 15 15 15 15 15 15 15 15 15 16 18 17 16
12 13 13 12 12 13 13 14 13 13 14 14 15 15 14 14 14 13 13 12 13 14 13 15 14 15 15 15 15 15 15 15 15 15 14 14 14 14 14 13 13 13 13 14 13 13 12 11 10 12 9 10 8 10 9 10 12 12 13 14 15 17 19 18 18 17 16 16 14 15 16 16 17 17 16 16 16 16 16 16 15 16 15 15 17
12 12 12 12 12 14 14 14 13 13 13 13 12 11 12 13 11 12 13 12 13 12 13 13 15 15 14 15 15 15 15 15 16 15 15 13 14 14 14 14 14 14 14 13 13 13 12 11 10 8 10 10 9 10 9 10 10 12 12 13 16 17 19 19 20 19 17 16 16 17 17 17 16 17 18 16 17 18 18 17 16 16 15 15 14
13 13 12 12 11 11 12 13 13 12 11 10 11 10 8 9 10 11 11 12 11 12 14 14 13 14 13 14 14 14 15 15 15 15 14 14 14 14 14 14 14 14 12 13 13 13 13 13 13 11 10 11 11 11 11 12 12 11 10 12 14 15 16 20 20 18 17 17 17 17 17 17 16 16 16 17 17 16 17 17 16 17 16 15 16
14 13 12 12 12 12 12 12 12 12 12 11 10 12 9 8 8 11 11 13 11 11 12 12 12 13 13 13 14 14 14 14 14 14 14 14 13 13 14 14 14 13 13 14 14 14 14 14 13 13 13 8 8 9 11 12 12 8 9 12 15 15 14 16 17 18 18 16 16 16 16 17 17 15 16 16 17 17 17 17 17 17 16 15 16
14 13 14 13 12 11 11 11 12 11 12 12 12 12 12 11 11 11 10 10 13 12 12 11 12 12 13 13 13 13 14 15 15 15 15 14 14 14 14 14 15 15 13 14 15 14 13 14 14 13 13 11 12 11 11 12 12 11 13 13 9 14 16 14 14 15 16 16 16 17 17 18 17 17 16 18 18 18 18 18 17 16 17 17 20
14 15 15 14 12 12 11 11 11 12 11 13 13 13 13 13 13 12 12 13 11 11 10 12 11 11 12 13 13 14 15 15 15 16 16 15 14 14 15 14 15 15 15 15 15 15 13 12 13 13 13 13 12 10 9 10 11 11 12 13 14 16 11 16 14 13 13 16 17 18 18 18 20 19 19 19 19 19 18 19 19 19 18 18 20
15 15 15 14 12 13 12 10 10 11 11 11 12 11 11 12 12 11 11 12 11 11 11 10 10 11 12 10 12 14 15 15 16 16 16 15 15 15 14 15 15 15 15 15 15 14 15 16 15 13 13 12 13 11 12 10 9 10 9 10 12 12 13 13 12 13 13 15 18 19 19 19 18 19 18 19 20 20 19 19 18 19 19 19 21
16 16 16 15 15 14 13 11 10 10 10 10 10 10 11 11 10 9 9 9 9 10 9 9 9 10 10 10 11 12 14 15 15 15 15 15 14 14 14 14 14 15 15 15 16 16 16 16 15 15 15 14 13 14 13 14 9 9 9 9 10 10 11 13 11 17 14 12 14 17 18 17 18 19 20 19 18 20 20 20 19 19 18 18 21
16 16 16 16 16 16 14 13 11 10 10 10 9 9 11 11 10 10 9 9 8 10 10 9 8 8 9 9 9 10 12 14 15 16 15 15 14 14 13 13 13 14 14 15 15 15 15 15 15 15 15 15 14 15 13 13 15 12 10 10 9 10 11 13 13 13 15 17 14 16 16 16 18 19 18 19 19 18 20 19 18 19 17 19 19
16 16 16 16 16 15 14 13 12 11 11 10 10 9 10 11 11 11 10 8 8 11 11 10 10 9 9 8 8 10 11 12 14 14 14 14 13 13 12 13 13 13 13 14 14 14 14 14 15 16 16 16 15 14 14 15 14 14 11 9 10 11 12 15 12 16 13 17 16 17 18 16 20 20 18 18 19 18 18 16 17 16 14 16 18
15 15 14 14 14 14 15 15 15 14 13 12 11 10 10 11 11 10 11 11 10 11 10 12 11 10 10 9 8 8 10 10 11 13 12 14 13 12 12 12 11 12 12 13 13 13 14 14 15 15 15 15 14 15 15 14 13 13 12 11 10 8 9 9 9 11 13 18 20 16 16 17 21 18 18 18 17 17 18 17 17 17 17 18 18
15 15 15 15 14 15 15 16 15 14 13 13 12 11 10 10 10 11 11 12 12 12 12 12 12 11 10 10 9 8 8 10 9 10 10 12 11 11 11 11 11 11 11 12 12 14 14 13 14 13 15 15 15 14 13 13 13 13 12 12 12 13 13 11 10 9 11 16 20 17 14 17 23 21 15 14 16 17 19 18 18 18 18 19 19
Wind_Speed
9 14 13 8 4 6 8 4 3 10 7 6 11 9 3 4 6 6 8 9 10 10 10 11 10 10 10 10 10 13 12 13 11 9 10 2 10 11 11 10 10 9 9 11 11 9 8 8 7 8 9 10 9 9 9 8 8 8 10 12 12 12 11 12 13 11 13 13 13 12 12 12 12 13 13 13 12 10 7 5 4 9 9 11 11
8 6 5 6 6 5 4 5 9 8 13 14 14 10 9 9 2 7 8 9 10 12 12 10 8 8 10 9 10 13 12 12 13 10 5 7 10 10 10 9 9 10 11 10 9 8 8 7 8 9 9 8 11 12 10 12 11 11 11 12 12 12 11 11 12 12 12 11 13 13 13 12 11 11 12 12 12 10 8 6 5 5 9 12 10
5 7 4 3 5 5 7 7 9 6 7 10 18 12 15 14 14 9 4 8 11 12 12 9 9 8 7 7 10 12 12 12 13 14 10 10 10 10 10 9 10 11 12 11 9 8 9 9 9 9 10 11 13 12 11 11 13 13 12 11 12 11 12 11 12 11 11 11 11 12 14 14 13 12 12 12 11 10 8 9 8 7 9 10 10
6 7 4 4 3 8 8 6 12 11 7 8 8 9 8 8 10 10 5 4 7 10 13 11 12 11 8 11 11 12 12 11 12 11 12 11 10 10 10 10 10 11 12 10 9 11 11 9 10 12 12 13 14 15 13 14 14 13 13 12 12 12 11 11 11 11 9 9 10 10 7 9 10 11 11 11 10 10 9 11 13 13 11 10 11
7 5 4 4 6 9 8 8 12 11 10 9 6 8 7 8 8 8 8 2 5 10 12 13 13 14 12 11 11 11 11 11 11 11 11 11 10 10 9 9 9 10 11 10 10 11 10 11 13 13 14 15 15 16 14 13 13 14 13 12 12 12 11 11 10 9 8 2 2 10 6 9 8 10 10 11 10 10 10 10 11 10 10 10 9
6 5 5 5 5 7 9 10 10 11 12 9 8 10 8 8 10 11 15 6 5 10 10 11 10 10 10 10 10 11 11 11 10 11 11 11 11 10 9 9 9 10 11 10 13 12 13 13 14 14 15 15 16 15 14 14 14 14 13 12 11 11 10 10 9 7 5 5 11 4 5 9 7 8 10 10 10 9 9 8 9 11 11 9 9
5 5 5 6 6 7 10 11 9 12 12 9 8 11 10 9 10 9 8 11 5 9 10 10 10 10 9 9 9 10 10 10 10 12 12 10 10 10 10 10 10 10 10 11 13 12 14 14 14 14 16 15 15 15 14 13 13 12 11 11 10 10 9 9 7 2 3 10 4 5 7 7 7 8 10 9 9 9 8 10 11 10 8 7 3
5 5 5 6 6 7 9 10 9 11 11 9 10 11 10 9 8 6 8 7 11 7 8 8 9 10 10 9 10 10 13 13 12 11 9 10 9 11 11 10 9 10 10 11 11 12 13 14 13 13 15 15 14 13 12 11 10 9 9 9 8 8 8 7 6 1 11 3 3 5 5 8 8 8 11 9 9 9 8 9 10 9 9 5 6
6 6 5 5 6 7 8 8 9 11 10 9 10 10 11 9 7 5 7 6 5 4 6 7 8 8 9 10 12 14 15 13 13 11 9 6 11 9 10 10 10 11 12 12 12 11 12 13 13 14 14 14 12 11 10 9 8 7 7 6 6 6 6 6 3 7 3 6 6 5 8 7 8 9 11 10 10 9 8 8 11 11 8 4 2
6 5 5 5 5 8 9 8 8 10 9 9 10 11 10 8 7 7 4 2 2 3 6 7 8 9 11 12 13 17 13 13 12 10 10 7 9 11 10 9 10 11 11 12 12 11 10 11 12 13 14 13 11 10 9 8 7 6 6 4 3 3 4 4 5 5 5 5 7 5 6 7 8 8 11 10 8 7 7 10 11 9 8 7 14
6 5 4 5 6 6 7 7 7 8 8 9 9 10 9 9 8 7 5 4 6 5 5 6 7 10 11 11 13 13 12 13 13 11 9 3 6 11 11 10 10 11 12 12 12 12 10 12 12 12 13 11 10 9 8 8 7 6 5 4 1 1 2 4 9 4 5 6 8 7 8 1 7 8 10 9 9 7 7 8 8 8 7 6 10
6 6 5 5 7 10 10 7 5 6 7 7 9 9 9 9 8 9 8 8 10 14 9 4 7 13 11 12 15 13 12 13 11 9 7 6 6 10 10 10 11 11 11 12 11 13 11 11 11 11 10 10 10 9 8 7 7 6 5 4 3 2 4 6 5 6 4 7 6 5 5 5 7 10 9 8 8 7 8 8 9 7 7 8 10
6 6 5 5 5 10 11 8 7 6 6 7 10 10 10 6 8 7 8 8 15 18 19 16 13 11 10 13 12 13 12 11 11 8 5 7 11 10 10 10 11 12 12 13 12 11 11 11 11 10 10 9 9 8 8 7 7 7 7 6 5 2 5 6 1 5 6 5 5 4 6 4 8 10 8 6 7 5 10 8 8 5 4 8 10
6 5 5 5 7 8 10 10 9 9 8 11 13 10 9 7 5 10 11 13 15 17 13 5 2 8 8 8 12 12 12 10 9 7 6 11 11 10 10 11 12 12 12 12 11 11 11 11 10 10 9 9 8 8 8 8 7 7 7 7 6 3 5 7 6 5 5 5 5 6 5 4 8 10 6 6 6 4 11 9 7 5 9 9 7
7 7 6 5 9 6 9 10 10 11 13 16 13 8 7 2 7 11 14 16 14 11 8 5 4 7 7 9 9 9 13 12 8 8 12 11 11 11 11 11 12 12 12 12 12 11 10 10 9 9 9 8 7 7 7 7 6 7 7 7 6 3 3 1 2 5 5 4 4 3 5 7 10 7 6 5 7 5 5 7 7 4 6 7 6
7 7 7 6 9 6 5 10 9 10 9 14 10 6 2 1 9 12 17 16 13 9 3 6 6 8 9 10 9 10 13 14 11 11 11 11 11 11 11 11 11 12 12 11 11 11 10 10 10 9 9 8 8 7 7 7 6 6 6 7 4 3 2 8 3 3 4 4 4 3 3 8 11 5 5 5 5 6 5 4 7 4 4 5 7
7 7 7 7 8 6 6 6 7 12 9 16 11 7 5 10 8 11 15 18 15 10 7 3 2 6 7 8 9 10 12 12 12 11 11 11 11 10 10 11 11 11 11 11 11 10 10 9 9 9 9 8 7 7 6 5 5 5 4 5 5 3 2 7 2 3 4 5 3 1 3 8 10 7 6 4 5 6 5 5 5 6 4 10 8
6 6 7 6 7 7 6 7 6 9 11 11 12 10 11 10 10 11 13 13 13 11 10 9 8 7 8 9 9 9 10 11 10 10 9 10 10 10 10 10 10 10 10 10 10 10 9 9 8 8 8 7 7 6 5 4 4 3 2 3 3 2 1 6 1 3 5 3 4 2 4 11 11 6 6 6 5 5 3 6 6 7 6 3 3
5 6 7 7 6 6 7 7 8 8 11 4 6 8 12 12 11 10 11 12 13 11 9 9 9 10 8 9 9 8 9 9 9 8 8 9 9 9 9 9 9 9 9 9 9 9 9 9 9 9 8 7 6 5 4 4 3 2 1 2 1 2 4 7 2 4 5 3 3 3 7 11 8 5 6 6 5 6 4 7 5 6 4 2 5
5 5 5 5 5 6 7 8 8 9 7 6 6 7 9 11 11 12 11 11 12 11 9 8 9 9 7 7 7 5 6 7 5 7 7 7 6 6 8 8 8 8 8 8 8 8 8 8 8 8 8 7 7 6 5 5 5 3 2 1 2 6 5 2 3 4 3 4 1 4 11 9 8 6 5 6 6 5 4 6 5 5 3 3 5
3 5 5 5 6 6 8 8 8 9 7 6 6 7 7 6 7 11 11 10 10 9 8 7 8 6 5 5 3 3 3 3 3 4 7 6 7 7 7 8 8 8 8 8 7 8 8 9 8 8 7 7 6 6 7 6 5 5 5 4 5 5 2 2 3 2 2 4 3 6 11 8 7 6 5 6 6 4 5 4 7 6 5 5 6
4 5 6 6 5 6 7 6 6 7 6 5 4 6 5 4 4 6 8 6 7 5 4 6 3 2 2 1 1 2 1 2 3 1 3 6 6 6 6 7 7 7 7 8 7 7 7 8 8 8 8 7 9 7 7 6 5 6 6 6 7 0 1 1 1 2 2 3 3 9 9 9 7 6 6 7 7 5 7 5 4 5 4 2 3
6 5 5 5 5 6 6 7 7 7 7 5 4 6 6 4 4 5 7 6 5 4 3 2 1 2 1 1 1 1 1 1 2 3 2 4 5 6 6 6 6 6 6 6 6 6 6 6 6 6 7 9 9 5 5 6 6 7 7 7 3 1 1 1 1 2 2 3 3 10 8 8 7 7 6 7 6 6 9 6 7 7 6 5 5
5 4 4 4 6 6 6 6 6 6 5 4 4 5 5 4 5 6 6 4 3 3 2 0 0 1 0 1 1 1 1 1 1 1 4 3 5 4 5 5 6 7 7 6 6 7 6 6 6 7 9 9 5 4 4 3 5 6 5 4 2 1 2 1 0 1 1 4 5 9 9 8 8 8 7 7 8 6 6 6 6 7 8 9 6
5 4 4 5 5 5 4 6 5 5 5 4 6 6 5 4 4 4 3 3 3 2 1 1 2 3 3 2 2 2 1 1 1 1 1 1 1 3 2 4 4 4 7 5 6 7 6 4 6 6 6 4 3 1 1 2 2 3 2 2 1 2 1 1 0 1 2 5 4 7 7 8 9 9 9 8 8 7 6 6 6 7 6 8 10
4 5 5 5 5 4 4 6 2 4 5 5 6 4 5 5 6 4 3 3 3 3 2 2 2 2 2 3 2 2 1 2 1 1 1 0 0 1 5 2 1 1 3 2 0 1 6 6 4 5 3 3 2 2 2 2 2 3 2 1 2 2 3 1 2 2 6 2 4 7 7 8 10 10 11 9 8 7 7 8 7 8 9 8 10
5 5 4 4 4 4 2 2 6 3 4 4 4 4 4 4 3 3 3 2 2 3 3 2 3 3 2 3 2 2 2 1 2 2 2 1 2 1 1 1 1 1 1 1 0 1 2 1 1 2 1 2 2 0 3 3 3 3 1 3 1 2 2 2 2 2 2 2 4 7 9 9 9 9 10 11 10 10 9 10 10 9 9 8 8
5 5 4 4 4 3 2 2 5 8 4 5 5 4 3 3 3 3 4 3 1 4 4 3 3 3 2 2 1 1 1 1 2 2 2 2 2 2 2 0 1 1 1 1 2 1 1 1 1 2 3 2 1 2 1 1 2 2 1 2 2 2 2 2 2 3 4 4 4 7 6 7 8 9 11 11 11 10 9 9 10 11 10 9 10
6 5 4 4 3 2 2 3 4 4 6 9 9 7 4 4 1 3 1 5 2 3 4 2 2 3 3 3 2 2 2 3 3 3 2 2 1 1 2 0 1 1 1 1 1 1 2 1 1 2 1 1 2 2 2 2 2 3 2 1 2 1 2 3 3 4 3 2 4 5 9 9 10 11 11 11 11 10 10 9 11 11 11 9 8
5 4 3 3 3 3 3 4 3 4 3 4 5 9 8 8 2 2 1 5 4 4 4 3 3 3 3 3 2 2 3 2 2 2 2 2 2 2 1 2 2 1 1 1 0 2 1 1 2 2 0 1 1 2 2 2 3 2 1 2 2 3 2 4 3 5 5 4 4 4 10 10 11 12 12 12 11 10 10 10 10 10 10 10 9
4 4 2 3 4 3 4 3 4 3 3 4 4 5 8 9 10 8 7 4 5 4 4 3 3 3 3 2 2 2 2 4 4 4 3 3 2 2 2 3 1 1 2 1 1 1 1 1 1 1 1 2 1 1 2 1 1 1 2 1 1 2 2 2 3 2 3 3 4 3 7 11 11 11 10 9 9 9 8 8 9 9 10 10 10
4 3 3 4 5 5 5 5 5 6 6 5 4 5 5 5 6 5 5 4 3 3 4 3 3 3 4 3 3 3 3 4 5 4 3 3 3 4 3 3 3 2 2 2 2 2 2 1 1 1 1 3 2 1 1 2 2 1 2 2 1 1 1 2 4 1 2 0 1 2 4 7 10 9 8 8 6 7 7 6 7 8 9 10 10
4 3 4 5 6 6 6 6 7 7 7 7 6 5 5 5 6 6 5 4 3 3 3 4 4 3 3 4 3 3 3 3 4 5 4 4 3 3 3 2 2 3 2 3 3 2 2 2 1 2 2 2 2 2 3 2 2 2 3 1 1 1 1 1 1 2 1 2 1 1 2 3 5 11 10 8 6 5 5 5 6 7 9 10 10
3 5 4 5 5 4 4 5 7 8 7 6 7 8 7 7 5 4 4 4 4 4 3 3 2 2 3 4 5 5 4 4 4 4 4 4 4 3 3 3 3 3 2 2 3 2 2 1 2 2 1 2 2 2 2 2 2 1 1 2 2 2 2 3 1 0 0 2 2 3 2 2 2 3 7 11 5 2 4 7 8 9 9 10 11
3 4 6 7 6 5 4 5 7 8 8 8 9 8 8 8 7 6 6 6 5 5 4 3 3 2 3 4 4 5 5 5 5 4 4 4 3 4 4 3 3 3 3 2 2 2 1 2 2 4 1 2 3 1 2 1 2 2 2 2 2 3 3 2 1 2 2 1 3 1 1 2 0 4 11 9 4 9 9 9 8 8 8 7 6
4 6 6 7 7 6 6 7 8 8 8 8 8 8 7 7 7 6 6 6 5 5 4 4 4 4 4 5 6 5 5 5 5 4 4 4 4 4 4 4 3 3 3 3 2 2 2 3 2 3 4 4 4 2 1 1 2 2 2 2 2 3 2 2 2 2 1 2 2 1 2 8 7 7 2 5 4 9 10 11 11 11 11 10 10
6 8 8 8 8 8 7 8 8 8 8 8 8 8 7 7 7 6 6 5 5 5 5 5 5 5 5 5 6 5 5 5 5 5 4 4 4 4 4 5 4 3 2 2 2 2 2 2 2 3 4 5 5 5 2 2 1 1 1 3 3 3 3 3 3 2 0 2 1 4 6 3 5 5 4 4 4 6 8 10 10 11 11 11 12
6 7 7 8 8 7 7 6 7 7 7 7 7 7 7 7 6 6 5 5 6 5 5 5 5 5 5 6 6 5 5 6 5 5 4 4 5 5 4 4 4 3 3 2 3 3 3 3 3 3 3 4 4 4 4 2 2 1 1 2 3 3 3 3 3 3 4 3 4 5 4 4 5 5 5 5 6 5 5 9 10 11 11 10 10
5 6 6 6 6 6 6 6 6 6 6 6 7 7 6 6 6 6 6 5 5 5 5 5 5 5 6 6 6 5 5 6 6 5 5 5 4 5 4 5 4 3 3 3 2 4 4 3 4 1 1 3 3 3 4 3 2 1 0 2 1 3 3 3 3 4 4 4 4 4 4 5 5 7 7 6 5 6 6 5 4 5 7 8 7
5 6 6 6 6 6 6 6 6 6 6 6 6 6 5 5 5 4 4 4 5 5 5 5 5 5 5 5 6 5 6 6 6 5 5 5 5 5 5 5 4 4 4 4 4 3 4 3 3 4 3 3 1 3 3 2 1 2 1 1 2 3 5 4 4 5 5 4 5 5 5 6 6 6 7 6 6 6 6 5 4 5 4 5 5
5 6 6 6 6 6 6 7 6 6 5 5 4 3 4 4 3 3 4 4 4 5 5 5 5 5 5 6 5 5 5 5 6 5 5 4 4 5 5 5 5 5 4 5 5 5 4 4 3 2 3 2 1 1 2 3 1 2 0 1 2 4 5 5 6 6 6 6 6 7 6 6 6 6 7 7 8 7 7 7 7 6 5 4 3
6 6 6 5 5 5 6 6 6 5 4 3 3 3 2 2 2 3 3 4 3 3 4 5 5 5 5 5 5 5 5 5 5 5 5 5 5 4 5 5 5 5 5 5 5 5 5 5 4 3 2 2 2 3 3 4 4 3 3 2 3 4 5 7 7 7 7 6 5 6 5 6 7 7 7 7 7 7 8 7 6 6 6 5 6
7 6 6 6 5 5 5 5 5 5 4 4 4 4 3 2 2 4 3 4 4 4 4 5 5 5 5 5 5 5 5 5 5 5 5 5 5 5 5 4 5 5 4 4 4 5 5 5 5 5 4 2 1 1 3 4 4 2 3 4 5 5 3 5 6 7 6 5 5 7 7 7 8 7 6 6 7 7 7 6 7 7 6 6 6
7 6 6 6 5 4 5 5 5 4 4 4 4 4 4 4 4 4 4 3 4 4 4 4 5 5 5 5 5 5 5 5 5 5 5 5 5 5 4 5 5 5 4 5 5 5 5 5 5 4 4 3 3 3 2 3 3 3 4 4 2 4 5 4 5 4 7 8 7 7 6 7 7 7 7 8 8 8 8 8 8 8 8 8 9
7 7 7 6 4 5 5 5 4 4 4 5 5 6 6 5 5 5 5 5 4 3 3 4 3 4 4 5 5 6 6 6 5 6 5 6 5 5 5 5 5 6 5 5 5 5 5 5 5 4 5 4 3 3 2 3 3 3 3 4 4 5 2 6 6 5 4 7 8 8 8 7 8 7 7 8 8 8 7 8 8 8 8 9 10
7 7 7 7 6 6 5 4 4 4 4 5 5 4 4 4 4 4 4 3 3 2 3 3 3 3 4 4 5 5 6 6 6 6 6 5 5 5 5 4 5 5 5 5 5 4 6 6 6 5 4 5 4 3 2 2 2 3 3 2 2 3 4 2 2 3 5 6 7 8 8 8 7 7 7 8 8 7 7 7 8 9 9 9 10
7 7 7 8 8 7 7 5 4 3 4 4 4 3 4 3 3 2 1 2 3 3 3 3 2 3 3 3 4 4 5 6 6 6 5 6 5 5 5 5 4 4 4 5 5 6 5 6 6 5 5 4 4 3 3 2 1 2 2 2 2 3 1 3 1 7 5 4 6 7 7 8 8 7 7 8 7 7 7 7 8 9 9 9 9
7 7 7 8 9 8 7 6 4 4 3 3 3 2 2 3 3 3 2 2 2 4 4 3 2 2 3 3 2 3 5 5 6 6 6 6 5 4 4 4 4 4 3 4 5 5 5 6 6 6 5 5 5 4 4 3 3 2 2 3 2 1 2 1 4 4 6 7 5 6 6 7 8 8 7 7 8 8 8 7 8 8 7 8 8
7 7 7 7 7 7 7 6 5 5 4 3 3 3 2 2 3 3 3 2 2 3 3 3 2 2 2 2 2 3 4 5 5 5 6 5 5 4 4 4 4 4 4 4 4 5 6 6 7 6 6 5 5 5 4 4 4 4 3 2 2 2 2 2 2 3 2 6 7 7 8 7 8 8 7 7 8 7 7 7 6 6 6 7 8
7 7 7 6 6 6 7 8 7 6 5 5 3 3 3 3 3 4 4 3 3 3 2 3 3 2 2 1 1 1 3 3 4 5 5 5 5 5 4 4 4 4 4 5 5 5 5 6 6 6 7 6 5 5 5 4 4 4 3 3 3 2 1 1 0 1 4 10 7 7 7 7 7 7 6 6 8 7 8 7 7 7 7 8 8
7 7 7 7 7 7 7 8 8 5 6 5 5 4 4 4 4 4 5 5 4 4 3 4 3 2 1 1 1 2 2 3 3 3 4 4 4 4 4 4 4 4 4 4 4 5 5 5 5 6 6 7 6 5 4 5 4 4 4 3 3 3 3 4 2 2 4 7 8 7 5 6 9 8 5 5 7 8 8 8 8 8 8 8 8
Wind_Direction
62 55 50 76 180 176 158 185 67 321 346 353 4 12 26 134 129 128 128 126 127 128 119 104 95 101 103 108 113 111 106 94 98 105 111 120 117 106 106 108 112 116 105 92 95 93 97 104 109 107 97 90 93 98 94 102 94 87 87 89 91 91 90 92 95 91 96 94 94 94 85 79 78 82 77 80 85 86 82 86 79 87 75 83 81
25 67 94 109 168 190 107 47 50 34 343 358 27 10 353 1 22 122 130 124 123 106 90 89 93 106 112 115 115 107 113 113 108 96 88 127 106 108 109 110 105 105 100 97 96 103 103 112 112 107 105 99 81 78 88 85 89 95 89 87 90 95 96 97 93 97 94 95 97 98 99 98 93 92 89 84 81 74 59 39 30 82 78 84 83
99 75 75 83 93 66 73 49 61 92 74 7 34 28 7 2 337 7 54 117 100 100 107 122 109 98 87 104 117 118 117 120 131 141 172 116 110 109 103 101 105 102 103 109 109 112 116 119 115 110 105 93 90 92 87 93 93 88 85 91 95 92 103 98 100 93 104 112 116 107 96 82 75 77 83 87 84 74 61 48 52 67 90 98 100
61 58 48 63 66 68 96 87 63 69 49 49 51 89 68 57 352 354 12 73 113 125 124 128 123 119 151 147 129 122 122 121 114 110 107 107 101 103 109 110 111 114 120 116 117 93 87 92 106 105 101 101 104 102 101 93 88 91 96 93 89 90 89 95 93 104 105 111 138 153 117 100 92 83 90 90 86 81 75 71 65 69 85 88 86
53 56 46 55 74 64 68 87 83 87 91 79 82 79 61 75 35 23 308 26 111 116 113 123 126 133 132 121 119 117 113 108 107 108 105 107 106 106 105 106 104 114 107 106 106 96 94 105 106 109 108 107 103 98 93 93 91 85 84 86 88 92 92 93 100 96 95 127 245 255 85 90 96 96 92 95 93 90 84 82 89 99 97 88 89
54 60 50 49 73 75 77 90 98 102 103 104 94 96 79 55 62 51 349 335 112 98 98 102 106 114 116 118 119 115 111 108 109 112 111 106 108 107 109 110 112 106 105 109 102 101 99 102 101 105 108 104 101 102 100 92 85 81 78 78 82 82 82 87 93 108 150 171 234 94 106 93 101 111 110 104 101 103 105 103 106 98 92 93 84
60 59 57 56 70 77 74 90 99 107 111 107 100 98 89 75 70 47 30 326 323 91 100 105 107 108 113 114 114 110 110 112 104 95 89 92 98 104 104 112 119 114 110 105 106 107 109 109 110 103 98 95 95 95 93 90 85 82 81 81 80 81 87 92 102 134 234 235 77 92 84 115 110 103 119 113 110 102 104 98 100 105 94 75 108
70 66 63 66 60 89 96 112 112 104 108 105 101 98 92 86 86 79 74 35 309 82 92 99 107 113 117 116 110 108 85 76 71 65 70 102 101 106 104 105 108 109 108 104 99 110 110 103 102 106 100 99 94 88 84 83 80 79 79 81 84 91 94 100 100 121 278 72 69 75 89 77 91 106 118 111 106 103 103 113 111 102 89 83 81
64 69 80 94 85 98 105 107 105 101 111 110 111 105 105 104 102 69 74 112 264 91 91 97 106 110 113 109 91 85 83 63 59 51 83 86 95 98 106 101 93 81 76 86 89 89 94 112 110 106 104 102 97 90 87 85 82 76 76 76 79 88 95 100 133 231 205 74 87 104 89 101 98 103 111 114 109 111 110 111 114 104 90 92 218
64 67 67 74 87 90 78 82 91 97 106 104 108 105 99 114 118 107 122 314 343 91 93 100 113 110 93 84 86 77 76 93 81 75 28 39 98 85 79 98 99 92 97 102 100 97 92 94 104 103 100 100 100 96 88 80 75 69 61 47 48 88 103 148 202 237 85 105 88 86 42 353 109 99 111 104 98 89 73 57 65 69 77 77 76
69 70 79 82 79 62 67 71 76 102 104 105 107 99 92 104 110 112 95 85 12 55 85 100 107 94 83 89 87 87 92 92 86 86 85 27 65 86 80 78 82 98 103 99 97 95 95 95 98 99 101 101 98 93 84 79 72 68 57 46 309 180 149 202 226 95 99 108 100 111 97 198 102 108 107 103 100 96 83 95 93 96 113 115 89
79 78 77 92 90 68 79 71 85 85 96 112 107 93 93 90 79 71 61 39 45 33 12 79 101 84 87 86 87 91 87 90 90 85 93 106 105 89 89 86 88 89 97 103 106 112 118 107 105 102 99 97 94 89 85 82 77 67 55 37 40 285 195 222 236 99 103 73 80 89 113 120 89 98 116 108 109 115 118 112 116 127 130 117 109
81 80 78 88 78 65 64 59 57 80 94 91 81 75 72 53 68 85 86 65 56 51 41 14 25 74 74 85 89 98 103 105 104 114 121 111 94 92 88 88 90 94 99 104 108 108 109 108 104 103 98 92 89 85 83 79 70 55 44 37 24 41 213 227 219 91 82 97 112 115 98 88 81 113 120 118 108 111 123 118 119 111 135 113 88
84 82 76 78 68 45 60 51 49 61 70 68 66 57 74 77 91 101 98 81 76 76 75 60 48 73 76 82 95 108 117 115 112 130 133 94 88 92 93 90 88 91 97 102 103 108 108 108 109 106 102 95 92 83 75 72 61 50 42 37 34 37 173 218 258 103 100 97 73 77 71 84 95 121 135 113 117 106 119 124 120 101 99 100 95
79 76 80 73 85 51 54 76 68 62 61 70 59 68 97 22 87 97 95 85 79 84 112 108 87 122 111 108 129 137 118 97 103 117 91 90 89 85 86 86 88 91 98 105 107 108 110 113 112 109 103 102 92 82 75 69 59 49 40 39 48 32 255 263 108 95 102 84 109 123 116 92 110 130 137 126 120 127 126 128 115 114 129 116 110
67 75 76 68 95 113 92 69 65 68 87 92 100 112 130 299 80 79 86 93 97 91 78 130 189 114 113 123 121 109 111 129 128 100 98 93 88 85 85 89 89 91 95 101 108 112 115 115 117 113 111 107 95 84 79 73 64 51 45 41 47 41 318 305 91 91 105 120 100 84 111 98 112 137 154 143 133 132 129 119 119 118 116 99 123
67 71 70 77 82 107 92 106 120 116 100 131 128 149 123 81 79 78 79 88 98 100 91 93 236 83 96 98 105 108 108 101 100 101 98 98 94 93 91 91 91 91 95 99 104 108 111 116 115 115 115 111 106 98 89 82 72 64 54 51 43 71 8 298 65 79 72 80 93 103 76 109 120 154 166 171 149 141 146 128 137 137 124 138 122
67 69 69 73 77 86 89 95 97 122 124 107 129 111 79 84 82 75 74 79 82 83 82 83 61 71 73 75 81 84 90 95 98 104 106 106 107 102 101 97 102 101 103 107 108 110 111 108 107 108 105 107 109 111 105 96 82 79 76 58 70 86 242 262 58 114 97 90 92 72 67 94 133 155 170 173 172 162 178 134 138 150 149 147 138
73 69 66 63 71 82 91 82 70 69 68 105 90 88 87 85 83 73 70 74 78 74 59 52 52 52 58 64 73 82 84 91 96 98 108 112 115 118 112 113 114 120 115 117 120 120 123 121 121 122 125 119 118 118 120 120 130 119 80 61 105 170 218 246 78 103 110 138 107 111 88 122 137 156 167 179 177 163 184 141 132 151 171 179 157
69 69 66 64 67 69 74 73 76 75 82 88 97 88 80 82 82 78 71 76 80 75 64 43 41 39 36 42 42 85 101 93 98 114 109 120 117 111 121 120 121 124 128 127 132 132 132 134 135 138 140 146 144 148 154 151 163 171 167 185 248 241 219 103 63 64 93 89 66 91 111 143 149 150 171 178 181 174 167 161 173 148 162 207 189
73 73 58 62 56 60 64 55 64 72 85 87 85 96 83 91 96 90 78 71 76 78 70 59 38 29 13 18 39 58 59 100 145 110 158 122 119 127 131 129 126 126 135 135 138 144 142 150 150 150 155 160 168 170 163 167 166 179 170 210 231 234 64 60 67 88 90 111 155 96 128 145 165 161 168 190 190 190 173 157 174 162 164 187 220
93 79 60 45 50 61 69 103 79 73 92 90 83 89 95 64 60 83 80 78 83 87 64 66 57 17 305 270 43 55 20 82 80 121 113 140 138 131 137 139 136 138 138 150 145 149 158 156 163 160 165 176 185 182 168 166 182 175 193 212 228 79 161 66 88 84 97 115 108 107 144 153 171 180 170 181 201 191 169 178 170 180 183 214 188
52 71 62 46 48 56 57 63 81 101 90 83 81 86 87 82 62 73 82 67 79 84 68 100 196 207 183 108 101 97 66 54 53 22 8 39 107 146 144 148 152 152 157 155 166 159 164 172 167 177 183 195 201 207 180 165 167 193 209 220 235 223 43 301 196 145 119 71 99 119 149 166 180 189 182 187 193 206 172 188 190 190 194 200 210
110 76 72 58 44 46 52 54 61 68 79 93 102 98 98 84 71 61 64 63 49 59 91 159 16 321 357 58 98 67 69 74 65 246 243 199 145 165 169 169 173 180 175 186 177 175 183 191 190 195 205 205 210 184 187 176 170 186 198 221 233 127 232 194 204 115 53 128 94 136 153 175 187 197 197 191 211 206 194 200 200 185 211 192 212
76 91 75 62 61 75 76 64 61 63 79 88 87 86 92 96 84 73 69 92 91 75 25 88 33 28 23 350 50 40 35 58 60 128 251 125 152 153 102 233 182 172 181 224 185 154 202 203 177 203 226 194 187 194 164 184 212 205 194 256 222 235 223 219 105 250 115 59 77 136 162 180 191 202 209 207 213 225 186 210 203 189 220 202 203
80 76 73 67 61 58 52 93 73 72 72 69 80 93 111 111 112 102 98 101 117 116 140 94 73 45 19 41 31 60 37 76 88 69 101 33 9 87 172 177 111 146 203 243 238 192 183 197 192 193 194 206 198 203 192 231 207 203 267 153 261 214 252 187 134 240 64 168 133 156 171 190 198 200 207 212 218 216 196 204 210 205 210 214 209
83 77 84 77 68 52 53 80 91 37 70 69 70 72 63 67 88 103 87 74 114 119 110 99 98 74 44 53 68 54 56 67 74 69 40 48 49 12 87 142 138 123 149 264 325 258 282 190 206 221 219 246 238 130 209 192 288 320 189 240 209 227 234 247 185 132 136 158 151 173 180 194 206 207 213 212 210 218 204 204 205 219 215 214 217
92 92 81 83 71 65 46 88 112 126 128 89 91 80 88 75 58 57 65 15 148 122 116 106 95 94 94 106 123 108 92 92 78 56 64 38 33 32 354 28 165 145 133 245 204 208 257 258 270 245 235 224 196 252 294 289 222 249 259 242 204 220 237 232 225 93 214 127 196 184 188 201 205 215 218 217 215 223 230 213 210 215 219 221 217
96 88 95 101 92 84 83 91 94 97 123 132 132 130 76 45 24 88 234 147 222 117 119 124 118 115 106 86 57 15 32 31 18 24 29 22 357 351 292 7 296 70 216 172 211 206 192 239 257 260 201 251 195 201 224 198 218 220 245 236 266 223 223 230 215 152 207 180 213 170 191 190 208 216 217 218 218 216 223 230 223 218 224 230 226
84 102 117 99 96 100 93 90 84 90 86 100 120 129 138 140 159 100 230 172 145 127 128 131 141 123 103 83 58 17 334 348 25 356 8 355 344 325 300 325 347 23 275 217 194 217 218 192 219 243 86 202 251 67 273 233 206 206 213 239 217 238 190 232 222 192 192 202 201 175 186 198 212 214 215 212 216 217 220 226 229 225 229 231 234
108 113 120 101 110 118 104 98 98 106 122 113 111 118 135 146 159 159 146 139 127 127 124 115 96 75 65 44 41 42 357 4 7 353 1 338 357 336 340 321 301 313 299 294 229 265 249 272 268 317 319 323 333 122 255 238 281 216 110 244 242 239 228 252 243 251 204 188 200 184 177 205 214 216 220 224 226 226 232 233 232 238 241 244 245
114 119 103 112 118 110 103 95 102 102 96 83 77 74 66 63 69 77 61 66 70 83 87 77 61 50 32 24 28 19 9 27 9 3 2 3 4 357 354 345 333 317 302 299 242 294 285 306 344 268 325 295 291 267 273 276 280 326 253 128 67 282 228 232 252 187 261 183 259 179 193 193 211 227 229 237 238 243 249 254 257 260 256 256 254
88 97 111 129 120 112 105 97 97 96 95 93 94 88 86 83 81 80 85 79 76 65 66 60 58 55 31 22 21 36 19 31 32 15 4 31 18 359 0 2 355 341 327 319 323 259 259 240 238 288 263 259 263 265 294 310 270 293 304 345 228 241 332 244 258 285 323 243 226 226 244 225 181 195 223 232 232 255 274 298 305 300 303 305 302
106 117 127 129 124 117 110 105 104 104 102 103 107 103 101 104 107 110 115 110 87 83 71 66 80 88 68 39 29 33 41 29 24 23 8 25 27 21 1 10 7 347 331 309 274 282 272 276 250 236 268 261 261 294 269 271 299 279 248 337 313 316 297 280 48 122 296 278 74 273 235 252 244 189 183 193 207 216 326 324 318 315 314 314 316
124 117 130 130 134 123 117 110 112 107 107 108 111 118 123 119 119 118 112 109 109 112 122 119 106 67 71 71 55 44 37 41 33 15 13 14 32 41 9 17 3 344 350 6 310 292 293 291 326 293 294 260 277 214 313 308 297 312 354 318 323 330 311 326 355 306 199 147 245 133 344 254 232 17 27 34 69 53 61 46 42 39 38 27 9
130 132 134 142 136 131 124 117 117 113 113 116 116 116 120 116 116 122 124 131 126 119 106 89 79 84 73 69 59 52 47 45 37 24 23 24 28 37 36 24 350 336 7 354 335 340 6 318 336 310 308 309 279 245 208 317 316 330 332 329 340 335 327 337 5 282 21 266 64 84 13 10 351 48 44 91 78 70 60 67 56 53 44 32 21
127 139 148 146 141 131 132 124 121 122 121 123 124 122 124 127 124 124 125 115 100 90 86 82 75 64 56 62 62 56 54 47 40 32 25 31 39 37 39 25 14 10 346 329 328 327 335 337 318 330 311 295 302 308 290 225 228 265 338 351 358 349 4 14 16 359 2 40 10 56 44 63 65 54 68 70 69 79 86 81 76 60 48 38 25
119 130 135 141 139 139 137 131 129 131 134 133 130 130 123 126 125 115 107 94 81 72 69 67 64 60 57 58 60 62 56 55 46 41 31 33 35 28 34 22 24 25 26 358 2 347 351 322 310 302 322 299 309 317 303 335 331 306 24 19 19 8 27 20 36 21 32 49 41 54 55 50 44 52 59 65 60 64 82 103 94 76 59 41 32
131 132 137 139 142 142 141 142 143 143 144 140 133 124 126 115 119 121 113 104 88 77 67 64 62 63 61 58 55 56 57 54 52 42 33 32 40 40 35 22 25 23 20 24 33 32 14 350 320 321 274 290 326 308 335 325 281 317 28 60 44 57 41 40 42 56 59 52 53 58 70 63 65 62 61 65 68 61 58 41 49 57 70 56 33
135 136 146 152 147 148 153 152 155 155 149 150 153 148 143 135 122 126 106 87 85 79 74 73 75 71 70 65 60 54 55 55 54 49 47 33 33 35 34 29 30 27 30 21 9 29 21 358 350 335 332 276 180 324 329 303 336 322 27 96 66 76 64 54 58 64 78 62 62 57 59 56 59 60 60 60 57 66 57 55 51 60 66 67 51
146 152 155 155 160 161 155 157 156 166 174 165 158 142 132 127 123 100 109 109 93 94 77 66 71 74 66 65 64 62 58 53 51 49 45 47 39 35 33 26 20 31 29 27 20 15 12 354 334 307 315 320 7 335 315 298 260 210 124 125 89 56 71 63 69 70 63 61 54 63 57 61 55 59 62 59 61 57 56 47 44 38 31 18 89
152 160 160 155 158 159 157 149 164 174 167 147 130 135 152 100 127 107 103 105 101 81 80 84 81 78 71 65 60 55 55 59 49 46 43 37 37 38 34 29 21 28 20 23 24 20 13 11 348 331 322 340 352 349 360 306 234 261 231 166 105 81 69 70 74 72 69 69 73 72 67 65 63 65 68 71 68 68 63 57 51 40 30 18 10
152 163 152 155 162 163 151 155 151 153 145 145 153 122 106 89 89 111 105 97 78 74 80 82 86 82 71 63 55 48 50 46 45 53 42 37 39 37 36 30 24 21 23 27 27 26 13 12 9 0 346 323 212 82 7 326 302 286 274 256 189 176 110 89 75 69 70 73 77 81 82 75 73 73 71 67 59 54 57 48 42 34 27 13 15
161 159 157 163 166 167 154 150 144 144 135 116 108 113 106 108 105 106 107 102 107 112 112 107 94 90 81 64 53 46 40 39 40 43 52 42 37 38 46 38 34 25 24 33 29 24 18 11 13 15 360 338 1 33 10 355 331 321 244 249 280 272 197 149 104 74 78 74 67 74 76 84 92 82 71 64 60 56 50 41 43 39 33 23 33
173 162 164 166 175 166 158 154 147 142 132 134 133 131 135 132 124 126 120 120 134 121 111 91 91 92 81 61 54 48 44 38 38 35 43 45 37 35 33 48 39 30 24 34 33 27 24 24 16 12 21 356 358 356 34 348 357 355 317 286 248 226 340 148 141 76 43 81 76 78 71 72 68 70 70 69 67 64 53 51 46 46 35 29 38
179 168 168 165 171 163 166 165 154 152 141 145 150 157 144 138 145 154 153 147 128 134 90 89 92 72 72 79 60 41 46 37 32 39 34 35 38 38 31 33 44 35 29 29 30 27 30 23 23 16 20 18 347 339 14 32 346 12 0 10 354 309 332 15 141 123 64 68 91 77 81 75 73 70 68 71 70 73 67 60 60 55 47 42 47
182 176 171 168 169 167 166 168 165 153 148 153 159 146 138 139 148 139 120 113 109 98 102 107 99 101 100 69 61 48 32 37 34 30 37 31 31 31 32 21 37 38 34 27 29 18 28 27 18 24 20 16 2 6 360 16 14 358 355 23 9 336 325 289 321 109 115 48 40 80 80 70 68 69 68 68 73 75 67 64 61 62 54 52 46
180 179 179 177 175 173 172 171 175 165 161 157 164 142 134 141 153 153 156 150 112 117 142 122 106 116 105 82 76 70 45 28 21 25 18 32 22 24 26 31 19 44 27 37 31 27 22 27 21 20 25 22 19 10 6 5 8 38 13 14 0 15 338 289 280 275 132 133 99 88 88 88 80 66 60 68 70 69 80 73 71 65 57 52 50
183 180 187 187 180 178 182 180 179 166 158 176 171 153 157 163 172 170 166 146 137 145 150 142 138 111 112 97 40 31 45 23 19 21 19 23 20 20 16 27 24 26 17 35 33 32 27 27 27 24 19 24 19 15 9 17 24 27 341 36 333 357 359 14 351 270 205 131 130 131 122 101 85 72 69 59 65 67 67 66 62 63 69 60 50
176 183 187 189 186 178 182 182 179 182 171 180 182 165 172 189 189 189 180 164 169 152 172 150 164 174 142 125 80 48 25 31 22 20 8 17 13 9 12 25 24 26 26 31 24 26 26 29 27 28 23 20 25 17 13 21 29 29 23 3 3 341 296 247 177 241 218 149 138 150 147 132 100 82 70 65 69 69 71 67 66 59 56 54 60
185 186 186 188 191 192 189 190 186 183 171 180 183 175 181 199 197 192 181 173 171 168 176 173 170 186 168 137 118 48 25 25 15 27 13 11 12 10 9 18 30 22 20 26 20 19 15 16 22 13 23 15 17 15 19 22 24 34 28 29 22 14 2 337 346 343 304 109 147 144 145 120 114 110 89 73 80 75 76 70 70 66 67 64 63